SWA1976 KORD-KDCA

Flight info

Callsign SWA1976
Flight time 1h 22m
Altitude 33000
Route DCT MOBLE DCT ADIME DCT OTENS DCT ANEWA DCT JERRI DCT NUSMM DCT BUCKO FRDMM6
Aircraft B38M/M-V/N

Departure

Time 2026-04-20 19:14
Airport Chicago O'Hare International Airport (KORD)

Arrival

Time 2026-04-20 20:36
Airport Ronald Reagan Washington National Airport (KDCA)
Time Latitude Longitude Altitude Speed Heading
2026-04-20 18:51 41.97652 -87.89267 671 ft 0 kts 68°
2026-04-20 19:03 41.97648 -87.89278 669 ft 3 kts 69°
2026-04-20 19:04 41.97641 -87.89303 668 ft 3 kts 71°
2026-04-20 19:04 41.97635 -87.89329 667 ft 3 kts 73°
2026-04-20 19:04 41.97630 -87.89356 670 ft 3 kts 77°
2026-04-20 19:04 41.97626 -87.89382 671 ft 3 kts 84°
2026-04-20 19:05 41.97626 -87.89409 671 ft 3 kts 101°
2026-04-20 19:05 41.97632 -87.89429 669 ft 3 kts 146°
2026-04-20 19:05 41.97638 -87.89433 666 ft 0 kts 181°
2026-04-20 19:09 41.97606 -87.89432 671 ft 11 kts 179°
2026-04-20 19:10 41.97498 -87.89432 671 ft 18 kts 180°
2026-04-20 19:10 41.97368 -87.89432 671 ft 19 kts 180°
2026-04-20 19:10 41.97230 -87.89436 671 ft 21 kts 183°
2026-04-20 19:10 41.97083 -87.89428 671 ft 22 kts 155°
2026-04-20 19:11 41.97043 -87.89244 671 ft 23 kts 89°
2026-04-20 19:11 41.97044 -87.89027 671 ft 24 kts 90°
2026-04-20 19:11 41.97043 -87.88792 671 ft 26 kts 90°
2026-04-20 19:11 41.97042 -87.88550 671 ft 25 kts 90°
2026-04-20 19:12 41.97045 -87.88335 671 ft 19 kts 89°
2026-04-20 19:12 41.97044 -87.88153 672 ft 13 kts 90°
2026-04-20 19:12 41.97044 -87.88142 672 ft 2 kts 90°
2026-04-20 19:12 41.97037 -87.88086 672 ft 12 kts 116°
2026-04-20 19:13 41.96978 -87.88001 674 ft 1 kts 173°
2026-04-20 19:13 41.96973 -87.88005 674 ft 4 kts 205°
2026-04-20 19:13 41.96857 -87.88134 673 ft 57 kts 221°
2026-04-20 19:13 41.96359 -87.88727 674 ft 133 kts 221°
2026-04-20 19:14 41.95532 -87.89715 927 ft 174 kts 222°
2026-04-20 19:14 41.94488 -87.90648 1807 ft 188 kts 199°
2026-04-20 19:14 41.93151 -87.90656 2595 ft 207 kts 161°
2026-04-20 19:14 41.92039 -87.89325 3226 ft 231 kts 119°
2026-04-20 19:15 41.91859 -87.87119 3947 ft 253 kts 78°
2026-04-20 19:15 41.92575 -87.84943 4975 ft 257 kts 65°
2026-04-20 19:15 41.93443 -87.82753 5661 ft 269 kts 60°
2026-04-20 19:15 41.94253 -87.80487 6435 ft 277 kts 70°
2026-04-20 19:16 41.94703 -87.77921 7215 ft 282 kts 79°
2026-04-20 19:16 41.94969 -87.75283 7982 ft 286 kts 82°
2026-04-20 19:16 41.95138 -87.72605 8753 ft 292 kts 84°
2026-04-20 19:16 41.95231 -87.69848 9641 ft 296 kts 85°
2026-04-20 19:17 41.95271 -87.67094 10529 ft 300 kts 85°
2026-04-20 19:17 41.95282 -87.64230 10903 ft 311 kts 86°
2026-04-20 19:17 41.95273 -87.61297 10988 ft 317 kts 86°
2026-04-20 19:17 41.95253 -87.58253 11055 ft 332 kts 86°
2026-04-20 19:18 41.95223 -87.55121 11697 ft 340 kts 86°
2026-04-20 19:18 41.95187 -87.51884 12308 ft 352 kts 86°
2026-04-20 19:18 41.95147 -87.48546 12914 ft 362 kts 86°
2026-04-20 19:18 41.95106 -87.45123 13538 ft 372 kts 86°
2026-04-20 19:19 41.95076 -87.42793 13955 ft 378 kts 86°
2026-04-20 19:19 41.95030 -87.39226 14550 ft 386 kts 86°
2026-04-20 19:19 41.94983 -87.35581 15126 ft 394 kts 86°
2026-04-20 19:19 41.94932 -87.31869 15717 ft 401 kts 86°
2026-04-20 19:20 41.94881 -87.28100 16315 ft 407 kts 86°
2026-04-20 19:20 41.94826 -87.24263 16934 ft 413 kts 86°
2026-04-20 19:20 41.94770 -87.20383 17542 ft 417 kts 86°
2026-04-20 19:20 41.94712 -87.16461 18202 ft 421 kts 86°
2026-04-20 19:21 41.94652 -87.12509 18829 ft 425 kts 86°
2026-04-20 19:21 41.94591 -87.08526 19408 ft 428 kts 85°
2026-04-20 19:21 41.94594 -87.04585 19978 ft 428 kts 83°
2026-04-20 19:21 41.94653 -87.00567 20571 ft 430 kts 83°
2026-04-20 19:22 41.94716 -86.96534 21182 ft 432 kts 83°
2026-04-20 19:22 41.94778 -86.92484 21798 ft 433 kts 82°
2026-04-20 19:22 41.94839 -86.88425 22281 ft 439 kts 82°
2026-04-20 19:22 41.94900 -86.84255 22325 ft 453 kts 83°
2026-04-20 19:23 41.94960 -86.79993 22415 ft 459 kts 83°
2026-04-20 19:23 41.95019 -86.75727 23095 ft 456 kts 82°
2026-04-20 19:23 41.95077 -86.71467 23787 ft 455 kts 82°
2026-04-20 19:23 41.95133 -86.67221 24412 ft 453 kts 82°
2026-04-20 19:24 41.95187 -86.62990 25010 ft 451 kts 82°
2026-04-20 19:24 41.95239 -86.58782 25493 ft 452 kts 82°
2026-04-20 19:24 41.95290 -86.54543 25981 ft 453 kts 82°
2026-04-20 19:24 41.95340 -86.50308 26478 ft 453 kts 81°
2026-04-20 19:25 41.95388 -86.46071 26986 ft 453 kts 81°
2026-04-20 19:25 41.95434 -86.41834 27497 ft 453 kts 81°
2026-04-20 19:25 41.95479 -86.37606 28025 ft 452 kts 81°
2026-04-20 19:25 41.95521 -86.33386 28551 ft 451 kts 81°
2026-04-20 19:26 41.95563 -86.29188 29117 ft 449 kts 81°
2026-04-20 19:26 41.95603 -86.25058 29669 ft 446 kts 81°
2026-04-20 19:26 41.95535 -86.20876 30228 ft 452 kts 90°
2026-04-20 19:26 41.94771 -86.16741 30764 ft 458 kts 101°
2026-04-20 19:27 41.93916 -86.12664 31221 ft 452 kts 97°
2026-04-20 19:27 41.93110 -86.08552 31414 ft 457 kts 97°
2026-04-20 19:27 41.92287 -86.04367 31380 ft 468 kts 98°
2026-04-20 19:28 41.90583 -85.95741 31379 ft 487 kts 98°
2026-04-20 19:28 41.89705 -85.91311 31641 ft 489 kts 98°
2026-04-20 19:28 41.88839 -85.86952 32036 ft 488 kts 98°
2026-04-20 19:28 41.87965 -85.82562 32449 ft 487 kts 98°
2026-04-20 19:29 41.87090 -85.78176 32867 ft 485 kts 98°
2026-04-20 19:29 41.86217 -85.73806 33269 ft 484 kts 98°
2026-04-20 19:29 41.85341 -85.69434 33422 ft 489 kts 98°
2026-04-20 19:30 41.83556 -85.60558 33377 ft 493 kts 98°
2026-04-20 19:30 41.81764 -85.51678 33380 ft 493 kts 98°
2026-04-20 19:31 41.79963 -85.42798 33376 ft 493 kts 98°
2026-04-20 19:31 41.78158 -85.33932 33383 ft 493 kts 98°
2026-04-20 19:32 41.76342 -85.25056 33389 ft 493 kts 98°
2026-04-20 19:32 41.74523 -85.16201 33394 ft 493 kts 98°
2026-04-20 19:33 41.72694 -85.07337 33396 ft 493 kts 98°
2026-04-20 19:33 41.70872 -84.98541 33395 ft 493 kts 98°
2026-04-20 19:34 41.69030 -84.89687 33402 ft 493 kts 98°
2026-04-20 19:34 41.67184 -84.80844 33412 ft 492 kts 98°
2026-04-20 19:34 41.66508 -84.76408 33383 ft 477 kts 84°
2026-04-20 19:35 41.66387 -84.72005 33398 ft 476 kts 83°
2026-04-20 19:35 41.66017 -84.63153 33407 ft 477 kts 84°
2026-04-20 19:36 41.65634 -84.54300 33402 ft 476 kts 84°
2026-04-20 19:36 41.65248 -84.45515 33402 ft 476 kts 84°
2026-04-20 19:37 41.64853 -84.36668 33401 ft 476 kts 84°
2026-04-20 19:37 41.64450 -84.27827 33394 ft 476 kts 84°
2026-04-20 19:38 41.64042 -84.18990 33393 ft 476 kts 84°
2026-04-20 19:38 41.63626 -84.10160 33394 ft 475 kts 84°
2026-04-20 19:39 41.63207 -84.01395 33391 ft 475 kts 84°
2026-04-20 19:39 41.62779 -83.92566 33400 ft 475 kts 84°
2026-04-20 19:40 41.62345 -83.83764 33408 ft 475 kts 84°
2026-04-20 19:40 41.61903 -83.74949 33396 ft 474 kts 84°
2026-04-20 19:41 41.61456 -83.66141 33403 ft 474 kts 84°
2026-04-20 19:41 41.60537 -83.57339 33397 ft 491 kts 100°
2026-04-20 19:42 41.58521 -83.48685 33401 ft 491 kts 98°
2026-04-20 19:42 41.56546 -83.39879 33411 ft 491 kts 98°
2026-04-20 19:43 41.54595 -83.31198 33409 ft 491 kts 98°
2026-04-20 19:43 41.52624 -83.22465 33412 ft 491 kts 98°
2026-04-20 19:44 41.50647 -83.13739 33411 ft 491 kts 98°
2026-04-20 19:44 41.48663 -83.05020 33408 ft 491 kts 98°
2026-04-20 19:45 41.46672 -82.96300 33407 ft 491 kts 98°
2026-04-20 19:45 41.44675 -82.87588 33404 ft 491 kts 98°
2026-04-20 19:46 41.42669 -82.78873 33410 ft 491 kts 99°
2026-04-20 19:46 41.40657 -82.70166 33411 ft 491 kts 99°
2026-04-20 19:47 41.38501 -82.61499 33400 ft 500 kts 109°
2026-04-20 19:47 41.36603 -82.57563 33412 ft 511 kts 127°
2026-04-20 19:47 41.34042 -82.54229 33429 ft 517 kts 134°
2026-04-20 19:48 41.28935 -82.47472 33419 ft 517 kts 130°
2026-04-20 19:48 41.23899 -82.40654 33420 ft 516 kts 130°
2026-04-20 19:49 41.18898 -82.33886 33423 ft 516 kts 131°
2026-04-20 19:49 41.13856 -82.27077 33417 ft 516 kts 131°
2026-04-20 19:50 41.08821 -82.20293 33418 ft 516 kts 131°
2026-04-20 19:50 41.03779 -82.13517 33396 ft 516 kts 131°
2026-04-20 19:51 40.98725 -82.06740 33395 ft 517 kts 131°
2026-04-20 19:51 40.93670 -81.99976 33388 ft 516 kts 131°
2026-04-20 19:52 40.88607 -81.93219 33386 ft 517 kts 131°
2026-04-20 19:52 40.83539 -81.86470 33387 ft 517 kts 131°
2026-04-20 19:53 40.78479 -81.79748 33392 ft 517 kts 132°
2026-04-20 19:53 40.73434 -81.73059 33386 ft 517 kts 132°
2026-04-20 19:54 40.68357 -81.66344 33397 ft 517 kts 132°
2026-04-20 19:54 40.63271 -81.59633 33390 ft 517 kts 132°
2026-04-20 19:55 40.58178 -81.52928 33386 ft 517 kts 132°
2026-04-20 19:55 40.53084 -81.46236 33388 ft 517 kts 133°
2026-04-20 19:56 40.48851 -81.40688 33383 ft 517 kts 133°
2026-04-20 19:56 40.42893 -81.32896 33389 ft 517 kts 133°
2026-04-20 19:57 40.37794 -81.26244 33392 ft 517 kts 133°
2026-04-20 19:57 40.32676 -81.19583 33389 ft 523 kts 133°
2026-04-20 19:58 40.27438 -81.12780 33388 ft 535 kts 133°
2026-04-20 19:58 40.22140 -81.05916 33390 ft 535 kts 133°
2026-04-20 19:59 40.16885 -80.99123 33376 ft 534 kts 134°
2026-04-20 19:59 40.11588 -80.92289 33371 ft 534 kts 134°
2026-04-20 20:00 40.06288 -80.85466 33369 ft 534 kts 134°
2026-04-20 20:00 40.01060 -80.78566 33372 ft 534 kts 132°
2026-04-20 20:01 39.95911 -80.71568 33373 ft 534 kts 132°
2026-04-20 20:01 39.90799 -80.64631 33377 ft 534 kts 132°
2026-04-20 20:02 39.85650 -80.57659 33384 ft 534 kts 133°
2026-04-20 20:02 39.80503 -80.50706 33373 ft 534 kts 132°
2026-04-20 20:03 39.76176 -80.44873 33377 ft 535 kts 133°
2026-04-20 20:03 39.71037 -80.37960 33373 ft 534 kts 133°
2026-04-20 20:04 39.65867 -80.31022 33361 ft 534 kts 133°
2026-04-20 20:04 39.60703 -80.24105 33352 ft 533 kts 133°
2026-04-20 20:05 39.55534 -80.17201 33349 ft 532 kts 133°
2026-04-20 20:05 39.50371 -80.10318 33347 ft 532 kts 134°
2026-04-20 20:06 39.45249 -80.03506 33347 ft 531 kts 134°
2026-04-20 20:06 39.40091 -79.96661 32905 ft 530 kts 134°
2026-04-20 20:06 39.37509 -79.93241 32492 ft 530 kts 134°
2026-04-20 20:07 39.34934 -79.89832 32087 ft 531 kts 133°
2026-04-20 20:07 39.32357 -79.86390 31677 ft 532 kts 130°
2026-04-20 20:07 39.30237 -79.82521 31372 ft 526 kts 113°
2026-04-20 20:07 39.28951 -79.78151 31314 ft 516 kts 97°
2026-04-20 20:08 39.28531 -79.73617 31340 ft 506 kts 85°
2026-04-20 20:08 39.28288 -79.69060 30989 ft 510 kts 88°
2026-04-20 20:08 39.27952 -79.64515 30360 ft 508 kts 88°
2026-04-20 20:08 39.27598 -79.59971 29586 ft 509 kts 89°
2026-04-20 20:09 39.27235 -79.55419 28816 ft 510 kts 89°
2026-04-20 20:09 39.26872 -79.50914 28084 ft 511 kts 89°
2026-04-20 20:09 39.26500 -79.46333 27360 ft 513 kts 89°
2026-04-20 20:09 39.26127 -79.41751 26647 ft 514 kts 89°
2026-04-20 20:10 39.25751 -79.37157 25962 ft 515 kts 89°
2026-04-20 20:10 39.25371 -79.32548 25295 ft 514 kts 89°
2026-04-20 20:10 39.24993 -79.27988 24661 ft 510 kts 88°
2026-04-20 20:10 39.24615 -79.23448 24394 ft 508 kts 89°
2026-04-20 20:11 39.24232 -79.18922 24309 ft 508 kts 89°
2026-04-20 20:11 39.23848 -79.14398 24295 ft 507 kts 89°
2026-04-20 20:11 39.23464 -79.09880 24298 ft 507 kts 89°
2026-04-20 20:11 39.23076 -79.05354 24316 ft 507 kts 89°
2026-04-20 20:12 39.22687 -79.00842 24234 ft 503 kts 89°
2026-04-20 20:12 39.22298 -78.96405 23741 ft 494 kts 90°
2026-04-20 20:12 39.21880 -78.91990 23096 ft 481 kts 90°
2026-04-20 20:13 39.21087 -78.83774 21859 ft 450 kts 90°
2026-04-20 20:13 39.20703 -78.79815 21246 ft 438 kts 91°
2026-04-20 20:13 39.20329 -78.75968 20636 ft 428 kts 91°
2026-04-20 20:13 39.19964 -78.72210 20080 ft 417 kts 91°
2026-04-20 20:14 39.19603 -78.68541 19523 ft 408 kts 91°
2026-04-20 20:14 39.19248 -78.64924 18963 ft 405 kts 92°
2026-04-20 20:14 39.18893 -78.61324 18388 ft 402 kts 92°
2026-04-20 20:14 39.18542 -78.57777 17746 ft 397 kts 92°
2026-04-20 20:15 39.18192 -78.54258 17368 ft 394 kts 92°
2026-04-20 20:15 39.17843 -78.50752 17203 ft 394 kts 93°
2026-04-20 20:15 39.17494 -78.47261 16940 ft 391 kts 93°
2026-04-20 20:15 39.17146 -78.43794 16682 ft 389 kts 93°
2026-04-20 20:16 39.16799 -78.40343 16355 ft 388 kts 93°
2026-04-20 20:16 39.16444 -78.36907 16002 ft 384 kts 96°
2026-04-20 20:16 39.15710 -78.33574 15657 ft 386 kts 106°
2026-04-20 20:16 39.14876 -78.30304 15312 ft 383 kts 105°
2026-04-20 20:17 39.14056 -78.27039 14964 ft 381 kts 105°
2026-04-20 20:17 39.13247 -78.23799 14626 ft 379 kts 105°
2026-04-20 20:17 39.12453 -78.20612 14301 ft 376 kts 105°
2026-04-20 20:17 39.11658 -78.17419 14046 ft 373 kts 105°
2026-04-20 20:18 39.10864 -78.14237 13662 ft 374 kts 105°
2026-04-20 20:18 39.10067 -78.11054 13204 ft 373 kts 106°
2026-04-20 20:18 39.09260 -78.07885 12755 ft 372 kts 107°
2026-04-20 20:18 39.08443 -78.04680 12315 ft 371 kts 107°
2026-04-20 20:19 39.07652 -78.01581 11944 ft 368 kts 107°
2026-04-20 20:19 39.06857 -77.98474 11571 ft 363 kts 107°
2026-04-20 20:19 39.06073 -77.95412 11218 ft 354 kts 107°
2026-04-20 20:19 39.05317 -77.92464 11098 ft 338 kts 107°
2026-04-20 20:20 39.04601 -77.89675 11080 ft 322 kts 107°
2026-04-20 20:20 39.03901 -77.86951 11061 ft 320 kts 107°
2026-04-20 20:20 39.03202 -77.84233 10922 ft 319 kts 107°
2026-04-20 20:20 39.02506 -77.81530 10669 ft 318 kts 107°
2026-04-20 20:21 39.01813 -77.78841 10409 ft 317 kts 107°
2026-04-20 20:21 39.01120 -77.76154 10174 ft 316 kts 107°
2026-04-20 20:21 39.00433 -77.73497 10034 ft 311 kts 107°
2026-04-20 20:21 38.99752 -77.70861 10029 ft 311 kts 107°
2026-04-20 20:22 38.99068 -77.68221 10036 ft 311 kts 107°
2026-04-20 20:22 38.98378 -77.65581 10013 ft 311 kts 109°
2026-04-20 20:22 38.97513 -77.63017 9669 ft 313 kts 114°
2026-04-20 20:22 38.96617 -77.60501 9258 ft 314 kts 114°
2026-04-20 20:23 38.95716 -77.57952 8895 ft 314 kts 114°
2026-04-20 20:23 38.94813 -77.55390 8513 ft 314 kts 113°
2026-04-20 20:23 38.93913 -77.52833 8152 ft 314 kts 114°
2026-04-20 20:23 38.93019 -77.50292 7994 ft 306 kts 113°
2026-04-20 20:24 38.92156 -77.47844 8015 ft 297 kts 113°
2026-04-20 20:24 38.91307 -77.45439 8009 ft 295 kts 114°
2026-04-20 20:24 38.90339 -77.43121 7914 ft 297 kts 118°
2026-04-20 20:24 38.89324 -77.40799 7551 ft 299 kts 118°
2026-04-20 20:25 38.88303 -77.38457 7195 ft 300 kts 118°
2026-04-20 20:25 38.87286 -77.36123 6845 ft 300 kts 118°
2026-04-20 20:25 38.86268 -77.33781 6487 ft 300 kts 118°
2026-04-20 20:25 38.85251 -77.31446 6188 ft 295 kts 118°
2026-04-20 20:26 38.84256 -77.29214 6105 ft 285 kts 119°
2026-04-20 20:26 38.83293 -77.27083 6009 ft 271 kts 118°
2026-04-20 20:26 38.82364 -77.25018 6003 ft 265 kts 118°
2026-04-20 20:26 38.81442 -77.22970 5994 ft 264 kts 118°
2026-04-20 20:27 38.80528 -77.20935 6010 ft 264 kts 118°
2026-04-20 20:27 38.79606 -77.18892 5984 ft 264 kts 118°
2026-04-20 20:27 38.78687 -77.16853 5724 ft 264 kts 118°
2026-04-20 20:27 38.77771 -77.14823 5359 ft 262 kts 119°
2026-04-20 20:28 38.77168 -77.13484 5110 ft 261 kts 118°
2026-04-20 20:28 38.75537 -77.11251 4459 ft 261 kts 153°
2026-04-20 20:28 38.73822 -77.10699 3984 ft 250 kts 183°
2026-04-20 20:28 38.72124 -77.10795 3587 ft 241 kts 185°
2026-04-20 20:29 38.70459 -77.10840 3162 ft 234 kts 184°
2026-04-20 20:29 38.68878 -77.10831 3032 ft 222 kts 183°
2026-04-20 20:29 38.67337 -77.10796 3014 ft 222 kts 182°
2026-04-20 20:29 38.65791 -77.10741 3003 ft 222 kts 182°
2026-04-20 20:30 38.64294 -77.10437 2948 ft 224 kts 158°
2026-04-20 20:30 38.63102 -77.09161 2933 ft 222 kts 120°
2026-04-20 20:30 38.62670 -77.07352 2924 ft 208 kts 85°
2026-04-20 20:30 38.62878 -77.05560 2992 ft 202 kts 66°
2026-04-20 20:31 38.63532 -77.04027 3004 ft 196 kts 45°
2026-04-20 20:31 38.64521 -77.02836 3016 ft 191 kts 32°
2026-04-20 20:31 38.65686 -77.02227 2897 ft 180 kts
2026-04-20 20:31 38.66937 -77.02145 3008 ft 181 kts 357°
2026-04-20 20:32 38.68193 -77.02149 3008 ft 180 kts 355°
2026-04-20 20:32 38.69450 -77.02221 2918 ft 181 kts 353°
2026-04-20 20:32 38.70689 -77.02324 2678 ft 175 kts 353°
2026-04-20 20:32 38.71881 -77.02442 2517 ft 170 kts 352°
2026-04-20 20:33 38.73051 -77.02556 2277 ft 168 kts 352°
2026-04-20 20:33 38.74153 -77.02663 2073 ft 162 kts 352°
2026-04-20 20:33 38.75279 -77.02780 1853 ft 156 kts 351°
2026-04-20 20:33 38.76359 -77.02889 1625 ft 148 kts 353°
2026-04-20 20:34 38.77329 -77.02982 1420 ft 133 kts 351°
2026-04-20 20:34 38.78225 -77.03074 1261 ft 126 kts 351°
2026-04-20 20:34 38.79102 -77.03168 1082 ft 127 kts 351°
2026-04-20 20:34 38.79991 -77.03257 868 ft 129 kts 351°
2026-04-20 20:35 38.80887 -77.03361 692 ft 129 kts 351°
2026-04-20 20:35 38.81784 -77.03435 536 ft 129 kts 352°
2026-04-20 20:35 38.82669 -77.03533 347 ft 126 kts 352°
2026-04-20 20:35 38.83525 -77.03609 175 ft 117 kts 352°
2026-04-20 20:36 38.84312 -77.03694 39 ft 114 kts 352°
2026-04-20 20:36 38.84929 -77.03755 26 ft 56 kts 356°
2026-04-20 20:36 38.85146 -77.03774 26 ft 15 kts 354°
2026-04-20 20:36 38.85218 -77.03797 27 ft 14 kts 335°
2026-04-20 20:37 38.85259 -77.03864 26 ft 6 kts 277°
2026-04-20 20:37 38.85259 -77.03865 26 ft 0 kts 276°
2026-04-20 20:37 38.85259 -77.03867 26 ft 1 kts 276°
2026-04-20 20:37 38.85257 -77.03909 26 ft 6 kts 279°
2026-04-20 20:38 38.85281 -77.03931 30 ft 8 kts 349°
2026-04-20 20:38 38.85335 -77.03985 26 ft 9 kts 268°
2026-04-20 20:38 38.85327 -77.03996 26 ft 2 kts 201°
2026-04-20 20:38 38.85243 -77.03986 26 ft 21 kts 175°
2026-04-20 20:39 38.85071 -77.03969 26 ft 26 kts 175°
2026-04-20 20:39 38.84937 -77.03956 26 ft 16 kts 175°
2026-04-20 20:39 38.84814 -77.03945 26 ft 19 kts 182°
2026-04-20 20:39 38.84689 -77.04003 27 ft 21 kts 204°
2026-04-20 20:40 38.84593 -77.04087 27 ft 13 kts 243°
2026-04-20 20:40 38.84588 -77.04111 27 ft 0 kts 255°
2026-04-20 20:40 38.84587 -77.04113 27 ft 1 kts 255°
2026-04-20 20:40 38.84592 -77.04164 27 ft 8 kts 307°
2026-04-20 20:41 38.84626 -77.04190 27 ft 2 kts 334°
2026-04-20 20:41 38.84634 -77.04195 27 ft 1 kts 333°
2026-04-20 20:41 38.84643 -77.04201 27 ft 1 kts 334°
2026-04-20 20:41 38.84645 -77.04202 27 ft 0 kts 334°